SM6EAT-3 Weather Reports


time (UTC)temp
F
wind
direction
speed
knots
gust
knots
rain 1hr
in
rain 24hr
in
rain mn
in
humidity
%
barometer
mb
20260507220835 46 0.0 0.0 0.00 0.00 0.00 35
20260507215835 46 0.0 0.0 0.00 0.00 0.00 35
20260507214835 47 0.0 0.0 0.00 0.00 0.00 34
20260507213835 48 0.0 0.0 0.00 0.00 0.00 34
20260507212835 48 0.0 0.0 0.00 0.00 0.00 33
20260507211836 49 0.0 0.0 0.00 0.00 0.00 33
20260507210836 50 0.0 0.0 0.00 0.00 0.00 32
20260507205836 50 0.0 0.0 0.00 0.00 0.00 31
20260507204836 51 0.0 0.0 0.00 0.00 0.00 30
20260507203836 51 0.0 0.0 0.00 0.00 0.00 29
20260507202836 52 0.0 0.0 0.00 0.00 0.00 28
20260507201836 53 0.0 0.0 0.00 0.00 0.00 27
20260507200836 53 0.0 0.0 0.00 0.00 0.00 26
20260507195836 55 0.0 0.0 0.00 0.00 0.00 23
20260507194836 56 0.0 0.0 0.00 0.00 0.00 23
20260507193836 57 0.0 0.0 0.00 0.00 0.00 22
20260507192836 58 0.0 0.0 0.00 0.00 0.00 21
20260507191836 59 0.0 0.0 0.00 0.00 0.00 19
20260507190836 60 0.0 0.0 0.00 0.00 0.00 19
20260507185836 62 0.0 0.0 0.00 0.00 0.00 18
20260507184836 63 0.0 0.0 0.00 0.00 0.00 17
20260507183836 65 0.0 0.0 0.00 0.00 0.00 16
20260507182835 66 0.0 0.0 0.00 0.00 0.00 16
20260507181836 69 0.0 0.0 0.00 0.00 0.00 17
20260507180836 69 0.0 0.0 0.00 0.00 0.00 16
20260507175835 70 0.0 0.0 0.00 0.00 0.00 16
20260507174836 71 0.0 0.0 0.00 0.00 0.00 16
20260507173836 72 0.0 0.0 0.00 0.00 0.00 15
20260507172835 72 0.0 0.0 0.00 0.00 0.00 15
20260507171835 72 0.0 0.0 0.00 0.00 0.00 16
20260507170835 72 0.0 0.0 0.00 0.00 0.00 15
20260507165835 73 0.0 0.0 0.00 0.00 0.00 15
20260507164836 72 0.0 0.0 0.00 0.00 0.00 16
20260507163835 72 0.0 0.0 0.00 0.00 0.00 16
20260507162836 72 0.0 0.0 0.00 0.00 0.00 16
20260507161836 72 0.0 0.0 0.00 0.00 0.00 16
20260507160836 72 0.0 0.0 0.00 0.00 0.00 16
20260507155836 71 0.0 0.0 0.00 0.00 0.00 16
20260507154836 71 0.0 0.0 0.00 0.00 0.00 17
20260507153910 69 0.0 0.0 0.00 0.00 0.00 17
20260507153835 69 0.0 0.0 0.00 0.00 0.00 17
20260507152835 68 0.0 0.0 0.00 0.00 0.00 17
20260507152414 69 0.0 0.0 0.00 0.00 0.00 17
20260507151835 69 0.0 0.0 0.00 0.00 0.00 17
20260507150835 69 0.0 0.0 0.00 0.00 0.00 17
20260507145835 69 0.0 0.0 0.00 0.00 0.00 17
20260507144836 69 0.0 0.0 0.00 0.00 0.00 17
20260507143835 69 0.0 0.0 0.00 0.00 0.00 17
20260507142835 68 0.0 0.0 0.00 0.00 0.00 17
20260507141835 68 0.0 0.0 0.00 0.00 0.00 17
20260507140835 70 0.0 0.0 0.00 0.00 0.00 17
20260507135835 69 0.0 0.0 0.00 0.00 0.00 17
20260507134835 69 0.0 0.0 0.00 0.00 0.00 17
20260507133835 68 0.0 0.0 0.00 0.00 0.00 18
20260507132835 68 0.0 0.0 0.00 0.00 0.00 18
20260507131836 68 0.0 0.0 0.00 0.00 0.00 16
20260507130835 67 0.0 0.0 0.00 0.00 0.00 16
20260507125835 67 0.0 0.0 0.00 0.00 0.00 16
20260507124835 66 0.0 0.0 0.00 0.00 0.00 17
20260507123835 67 0.0 0.0 0.00 0.00 0.00 17
20260507122835 67 0.0 0.0 0.00 0.00 0.00 17
20260507121836 66 0.0 0.0 0.00 0.00 0.00 19
20260507120836 65 0.0 0.0 0.00 0.00 0.00 17
20260507115835 64 0.0 0.0 0.00 0.00 0.00 19
20260507114835 63 0.0 0.0 0.00 0.00 0.00 18
20260507113835 63 0.0 0.0 0.00 0.00 0.00 18
20260507112835 63 0.0 0.0 0.00 0.00 0.00 18
20260507111836 62 0.0 0.0 0.00 0.00 0.00 21
20260507110835 61 0.0 0.0 0.00 0.00 0.00 24
20260507105835 60 0.0 0.0 0.00 0.00 0.00 22
20260507104835 60 0.0 0.0 0.00 0.00 0.00 23
20260507103835 59 0.0 0.0 0.00 0.00 0.00 24
20260507102835 58 0.0 0.0 0.00 0.00 0.00 24
20260507101836 57 0.0 0.0 0.00 0.00 0.00 29
20260507100835 57 0.0 0.0 0.00 0.00 0.00 29
20260507095835 56 0.0 0.0 0.00 0.00 0.00 29
20260507094835 55 0.0 0.0 0.00 0.00 0.00 32
20260507093835 54 0.0 0.0 0.00 0.00 0.00 31
20260507092835 53 0.0 0.0 0.00 0.00 0.00 34
20260507091836 53 0.0 0.0 0.00 0.00 0.00 36
20260507090835 52 0.0 0.0 0.00 0.00 0.00 37
20260507085835 51 0.0 0.0 0.00 0.00 0.00 37
20260507084835 50 0.0 0.0 0.00 0.00 0.00 38
20260507083835 49 0.0 0.0 0.00 0.00 0.00 39
20260507082835 48 0.0 0.0 0.00 0.00 0.00 39
20260507081836 48 0.0 0.0 0.00 0.00 0.00 41
20260507080836 47 0.0 0.0 0.00 0.00 0.00 42
20260507075836 46 0.0 0.0 0.00 0.00 0.00 44
20260507074836 45 0.0 0.0 0.00 0.00 0.00 45
20260507073836 44 0.0 0.0 0.00 0.00 0.00 46
20260507072835 43 0.0 0.0 0.00 0.00 0.00 46
20260507071835 43 0.0 0.0 0.00 0.00 0.00 49
20260507070835 42 0.0 0.0 0.00 0.00 0.00 50
20260507065835 42 0.0 0.0 0.00 0.00 0.00 51
20260507064835 41 0.0 0.0 0.00 0.00 0.00 53
20260507063835 40 0.0 0.0 0.00 0.00 0.00 53
20260507062835 40 0.0 0.0 0.00 0.00 0.00 53
20260507061835 39 0.0 0.0 0.00 0.00 0.00 54
20260507060835 38 0.0 0.0 0.00 0.00 0.00 55
20260507055835 38 0.0 0.0 0.00 0.00 0.00 55
20260507054836 37 0.0 0.0 0.00 0.00 0.00 55
20260507053836 36 0.0 0.0 0.00 0.00 0.00 55
20260507052835 36 0.0 0.0 0.00 0.00 0.00 55
20260507051835 35 0.0 0.0 0.00 0.00 0.00 55
20260507050835 35 0.0 0.0 0.00 0.00 0.00 55
20260507045835 35 0.0 0.0 0.00 0.00 0.00 54
20260507044836 34 0.0 0.0 0.00 0.00 0.00 54
20260507043836 34 0.0 0.0 0.00 0.00 0.00 54
20260507042836 34 0.0 0.0 0.00 0.00 0.00 54
20260507041836 34 0.0 0.0 0.00 0.00 0.00 54
20260507040835 34 0.0 0.0 0.00 0.00 0.00 53
20260507035835 34 0.0 0.0 0.00 0.00 0.00 53
20260507034836 34 0.0 0.0 0.00 0.00 0.00 52
20260507033836 35 0.0 0.0 0.00 0.00 0.00 51
20260507032836 35 0.0 0.0 0.00 0.00 0.00 52
20260507031836 35 0.0 0.0 0.00 0.00 0.00 51
20260507030835 35 0.0 0.0 0.00 0.00 0.00 51
20260507025836 36 0.0 0.0 0.00 0.00 0.00 51
20260507024836 36 0.0 0.0 0.00 0.00 0.00 51
20260507023836 36 0.0 0.0 0.00 0.00 0.00 51
20260507022836 37 0.0 0.0 0.00 0.00 0.00 51
20260507021836 37 0.0 0.0 0.00 0.00 0.00 51
20260507020836 37 0.0 0.0 0.00 0.00 0.00 51
20260507015835 37 0.0 0.0 0.00 0.00 0.00 50
20260507014835 38 0.0 0.0 0.00 0.00 0.00 50
20260507013835 38 0.0 0.0 0.00 0.00 0.00 50
20260507012835 38 0.0 0.0 0.00 0.00 0.00 50
20260507011835 39 0.0 0.0 0.00 0.00 0.00 50
20260507010836 39 0.0 0.0 0.00 0.00 0.00 49
20260507005836 39 0.0 0.0 0.00 0.00 0.00 49
20260507004836 40 0.0 0.0 0.00 0.00 0.00 49
20260507003836 40 0.0 0.0 0.00 0.00 0.00 49
20260507002836 40 0.0 0.0 0.00 0.00 0.00 49
20260507001836 41 0.0 0.0 0.00 0.00 0.00 48
20260507000835 41 0.0 0.0 0.00 0.00 0.00 48
20260506235835 42 0.0 0.0 0.00 0.00 0.00 48
20260506234836 42 0.0 0.0 0.00 0.00 0.00 47
20260506233835 43 0.0 0.0 0.00 0.00 0.00 47
20260506232835 43 0.0 0.0 0.00 0.00 0.00 47
20260506231835 44 0.0 0.0 0.00 0.00 0.00 47
20260506230835 44 0.0 0.0 0.00 0.00 0.00 47
20260506225835 44 0.0 0.0 0.00 0.00 0.00 46
20260506224836 45 0.0 0.0 0.00 0.00 0.00 46
20260506223835 46 0.0 0.0 0.00 0.00 0.00 46
20260506222835 46 0.0 0.0 0.00 0.00 0.00 45
20260506221836 47 0.0 0.0 0.00 0.00 0.00 45